Regional Weather Roundup
Issued by NWS

Home | Current Version | Previous Version | Text Only | Print | Product List | Glossary On
Versions: 1 2 3 4 5 6 7 8 9 10 11 12 13 14 15 16 17 18 19 20 21 22 23 24 25 26 27 28 29 30 31 32 33 34 35 36 37 38 39 40 41 42 43 44 45 46 47 48 49 50
000
ASCA42 TJSJ 220510
RWRPR
PUERTO RICO/U.S. VIRGIN ISLANDS HOURLY WEATHER ROUNDUP
NATIONAL WEATHER SERVICE SAN JUAN PR
100 AM AST SUN JAN 22 2017

PRZ001>002-007>008-010-220600-
PUERTO RICO

CITY           SKY/WX    TMP DP  RH WIND       PRES   REMARKS
SAN JUAN LMM   PTCLDY    75  66  73 S3        29.99S
PONCE          CLEAR     66  64  94 CALM      30.01F
AGUADILLA      PTCLDY    68  64  88 SE6       30.00F
CEIBA          CLEAR     68  66  94 CALM      30.00F
$$

VIZ001>002-220600-
U.S. VIRGIN ISLANDS

CITY           SKY/WX    TMP DP  RH WIND       PRES   REMARKS
CHARLOTTE AMA  MOCLDY    73  66  78 CALM      29.97F
CHRISTIANSTED  CLEAR     68  64  88 N5        29.99S
$$

HOURLY WEATHER ROUNDUP FOR THE NEWS MEDIA

CITY           SKY/WX    TMP DP  RH WIND       PRES   REMARKS
ORLANDO        CLOUDY    70  62  76 S10       29.82F
NEW YORK       FOG       44  44 100 W6        29.79F VSB 1/8
NEWARK         CLOUDY    44  44 100 NW6       29.78F FOG
CHICAGO        FOG       41  41 100 NW9       29.60R VSB 1/8
HARTFORD       FOG       41  40  96 SW3       29.76S VSB 1/4
BOSTON         PTCLDY    43  40  89 E3        29.75S
DALLAS         MOCLDY    58  45  62 S6        29.44F
PHILADELPHIA   DRZL/FOG  46  45  96 CALM      29.80  VSB 1/2
LOS ANGELES    MOCLDY    56  48  74 SW5       30.09S
WASHINGTON DC  FOG       48  47  96 CALM      29.76F VSB 1/8


USA.gov is the U.S. government's official web portal to all federal, state and local government web resources and services.